Flag for India Weather past 2 weeks in Nadiad, Gujarat, India

Now
79 °F

Fog.


Feels Like: 83 °F
Forecast: 78 / 89 °F
Wind: 5 mph from West

Location: Ahmadabad Airport

Current Time: Sep 17, 2014 at 7:44:37 AM

Latest Report: Sep 17, 2014 at 6:40 AM


Visibility: 2 mi

Pressure: 29.68 "Hg

Humidity: 94%

Dew point: 77 °F

Location of NadiadLocation

Historic Weather in Nadiad — Graph

°F

Nadiad temperature yesterday

Maximum temperature yesterday: 91 °F (at 2:10 PM)
Minimum temperature yesterday: 79 °F (at 3:10 AM)
Average temperature yesterday: 84 °F

Past Weeks' High & Low Weather Summary

 TemperatureHumidityPressure
High93 °F (Sep 6, 3:10 PM)100% (Sep 2, 7:40 AM)29.83 "Hg (Sep 2, 7:40 AM)
Low75 °F (Sep 8, 9:10 PM)56% (Sep 6, 3:10 PM)29.45 "Hg (Sep 4, 3:40 AM)
Average82 °F91%29.67 "Hg
* Reported Sep 2 6:40 AM — Sep 17 6:40 AM, Nadiad, Weather by CustomWeather, © 2014

Note: Actual official high and low records may vary slightly from our data, if they occured in-between our weather recording intervals... More about our weather records

Advertising

Nadiad weather history for previous 24 hours

 ConditionsComfort  
Time TempWeatherWind HumidityBarometerVisibility
6:40 AM
Sep 17
79 °FFog.5 mph94%29.68 "Hg2 mi
6:10 AM79 °FFog.6 mph94%29.68 "Hg2 mi
5:40 AM79 °FFog.7 mph94%29.68 "Hg2 mi
4:40 AM81 °FFog.6 mph89%29.68 "Hg2 mi
4:10 AM81 °FFog.6 mph89%29.68 "Hg2 mi
3:40 AM79 °FFog.5 mph94%29.68 "Hg2 mi
3:10 AM79 °FFog.5 mph100%29.68 "Hg2 mi
2:40 AM79 °FFog.3 mph100%29.68 "Hg2 mi
12:10 AM82 °FHaze.2 mph89%29.71 "Hg2 mi
11:40 PM
Sep 16
82 °FHaze.2 mph89%29.71 "Hg2 mi
11:10 PM82 °FHaze.2 mph89%29.71 "Hg2 mi
10:40 PM82 °FHaze.3 mph89%29.71 "Hg2 mi
9:40 PM84 °FHaze.3 mph89%29.71 "Hg2 mi
9:10 PM84 °FHaze.5 mph84%29.71 "Hg2 mi
8:40 PM84 °FHaze.3 mph79%29.71 "Hg2 mi
7:40 PM86 °FHaze.3 mph75%29.68 "Hg2 mi
7:10 PM88 °FHaze.3 mph70%29.68 "Hg2 mi
6:40 PM88 °FHaze.5 mph70%29.68 "Hg3 mi
6:10 PM90 °FHaze.5 mph67%29.65 "Hg3 mi
4:10 PM91 °FScattered clouds.6 mph67%29.65 "Hg3 mi
3:40 PM91 °FScattered clouds.7 mph67%29.65 "Hg3 mi
2:40 PM90 °FScattered clouds.5 mph75%29.68 "Hg3 mi
2:10 PM91 °FScattered clouds.6 mph75%29.71 "Hg3 mi
1:40 PM90 °FScattered clouds.5 mph79%29.71 "Hg3 mi
1:10 PM90 °FScattered clouds.6 mph84%29.74 "Hg3 mi
12:40 PM90 °FScattered clouds.6 mph84%29.74 "Hg3 mi
11:40 AM90 °FScattered clouds.6 mph84%29.77 "Hg2 mi
11:10 AM90 °FScattered clouds.6 mph79%29.77 "Hg2 mi
10:40 AM86 °FScattered clouds.6 mph89%29.77 "Hg2 mi
10:10 AM86 °FFog.7 mph89%29.77 "Hg2 mi
9:40 AM84 °FFog.6 mph94%29.77 "Hg2 mi
8:10 AM81 °FFog.5 mph100%29.74 "Hg1 mi
7:40 AM81 °FFog.5 mph100%29.74 "Hg1 mi
7:10 AM79 °FFog.3 mph100%29.74 "Hg1 mi
Weather by CustomWeather, © 2014

See weather overviewHow to use our weather pages